Weather in Voznesenskoye

Russia / Arkhangel'skaya Oblast'     62°20′10″N   44°12′40″E
temp.,
°C
wind,
m/s
gust,
m/s
humid.,
%
clouds,
%
prec.,
mm/h
press.,
hPa
HPBL,
m
17 may, mon
mon1700:00+12wnw489484 0.1 1008477
03:00+11wnw3795100 0.1 1010540
06:00+12wnw3891100 0.0 1012675
09:00+14nw477772 0.1 1014826
12:00+17nw3658100 0.0 10161459
15:00+20nnw244719 0.0 10171683
18:00+20nne124847 0.0 10171204
21:00+13e378280 0.0 1019134
18 may, tue
tue1800:00+11ese2692100 0.0 1020136
03:00+9ese269739 0.0 1021132
06:00+13ese377963 0.0 1021258
09:00+18se465793 0.0 1021731
12:00+23se464110 0.0 10191327
15:00+25sse463512 0.0 10181584
18:00+23sse474647 0.0 1018983
21:00+17se311671 0.0 1018284
19 may, wed
wed1900:00+15se3107836 0.0 1018249
03:00+13se398615 0.0 1017197
06:00+18se310695 0.0 1017377
09:00+24s484847 0.0 1016806
12:00+28s573798 0.0 10161478
15:00+30s562838 0.0 10152410
18:00+28sse473424 0.0 1015731
21:00+21sse3125950 0.0 1015350
20 may, thu
thu2000:00+18sse311665 0.0 1015309
03:00+15se27805 0.0 1015149
06:00+18sse39650 0.0 1015343
09:00+24s46420 0.0 1014971
12:00+28s47320 0.0 10131996
15:00+29s56260 0.0 10122373
18:00+27s47320 0.0 10111405
21:00+20sse311530 0.0 1011260
21 may, fri
fri2100:00+16sse310660 0.0 1011223
03:00+15se310745 0.0 1011236
06:00+18sse49625 0.0 1009386
09:00+23sse58396 0.0 10081758
12:00+26sse58315 0.0 10062757
15:00+27sse572764 0.0 10042952
18:00+22s595076 0.0 10041173
21:00+16sse227534 0.0 100332